Location: Poughquag
(41.6090°N, 73.6820°W)
Time: 09:49:18
(UTC-05:00)

SR - Pass Details

Date: 11 December 2023
Orbit: 574 x 868 km, 66.7° (Epoch: 25 February)

Event Time Altitude Azimuth Distance (km) Brightness Sun altitude
Rises 08:13:59 0° 162° (SSE) 3,239 ? 8.6°
Reaches altitude 10° 08:17:07 10° 142° (SE) 2,370 ? 9.1°
Maximum altitude 08:20:33 17° 103° (ESE) 1,974 ? 9.5°
Drops below altitude 10° 08:24:06 10° 65° (ENE) 2,472 ? 10.0°
Sets 08:27:27 0° 46° (NE) 3,441 ? 10.5°
